Peachtree City, GA

11:40 AM EST on December 09, 2019 (GMT -0500)
Peachtree City-Falcon

Weather History for KFFC - June, 2019

Change the Weather History Date:

Sunday, June 9, 2019

  Actual Average Record
Temperature  
Mean Temperature 76 °F 75 °F  
Max Temperature 81 °F 86 °F 97 °F (2008)
Min Temperature 71 °F 63 °F 53 °F (1997)
Degree Days  
Heating Degree Days 0 0  
Month to date heating degree days 0 0  
Since 1 June heating degree days 0 0  
Since 1 July heating degree days 2325 2950  
Cooling Degree Days 11 10  
Month to date cooling degree days 103 81  
Year to date cooling degree days 510 271  
Since 1 June cooling degree days 103 81  
Growing Degree Days 26 (Base 50)    
Moisture  
Dew Point 71 °F    
Average Humidity 84    
Maximum Humidity 94    
Minimum Humidity 74    
Precipitation  
Precipitation T in 0.12 in 0.71 in (2015)
Month to date precipitation 5.77 1.10  
Year to date precipitation 26.53 22.62  
Snow  
Snow 0.00 in - - ()
Month to date snowfall 0.0  
Since 1 June snowfall 0.0  
Since 1 July snowfall T  
Snow Depth 0.00 in    
Sea Level Pressure  
Sea Level Pressure 29.90 in    
Wind  
Wind Speed 4 mph (ESE)    
Max Wind Speed 9 mph    
Max Gust Speed 11 mph    
Visibility 9 miles    
Events Rain    
T = Trace of Precipitation, MM = Missing Value Source: NWS Daily Summary

Daily Weather History Graph

Daily Weather History Graph

Search for Another Location

Airport or City:

Astronomy

Jun. 09, 2019 Rise Set
Actual Time 6:28 AM EDT 8:46 PM EDT
Civil Twilight 5:59 AM EDT 9:15 PM EDT
Nautical Twilight 5:24 AM EDT 9:50 PM EDT
Astronomical Twilight 4:46 AM EDT 10:29 PM EDT
Moon 12:55 PM EDT 1:35 AM EDT
Length of Visible Light 15h 16m
Length of Day
14h 18m
Waxing Crescent, 43% of the Moon is Illuminated
Jun 9
Waxing Crescent
Jun 10
First Quarter
Jun 17
Full
Jun 25
Last Quarter
Jul 2
New

Hourly Weather History & Observations

Time (EDT) Temp. Heat Index Dew Point Humidity Pressure Visibility Wind Dir Wind Speed Gust Speed Precip Events Conditions
12:53 AM 72.0 °F - 70.0 °F 93% 29.86 in 10.0 mi ESE 6.9 mph - N/A   Overcast
1:53 AM 73.0 °F - 70.0 °F 90% 29.86 in 10.0 mi SE 5.8 mph - N/A   Overcast
2:49 AM 71.6 °F - 69.8 °F 94% 29.87 in 10.0 mi SE 5.8 mph - N/A   Overcast
2:53 AM 72.0 °F - 70.0 °F 93% 29.86 in 10.0 mi SE 4.6 mph - N/A   Overcast
3:53 AM 72.0 °F - 70.0 °F 93% 29.85 in 10.0 mi SE 5.8 mph - 0.00 in Rain Light Rain
4:53 AM 71.1 °F - 69.1 °F 93% 29.84 in 10.0 mi SE 6.9 mph - 0.00 in   Scattered Clouds
5:05 AM 71.1 °F - 69.1 °F 93% 29.86 in 10.0 mi SE 4.6 mph - N/A   Mostly Cloudy
5:12 AM 71.1 °F - 69.1 °F 93% 29.87 in 10.0 mi SE 4.6 mph - N/A   Mostly Cloudy
5:34 AM 71.1 °F - 69.1 °F 93% 29.87 in 10.0 mi SE 5.8 mph - N/A   Overcast
5:53 AM 71.1 °F - 69.1 °F 93% 29.86 in 10.0 mi SE 3.5 mph - 0.00 in Rain Light Rain
6:53 AM 71.1 °F - 69.1 °F 93% 29.86 in 10.0 mi ESE 3.5 mph - 0.00 in   Overcast
7:30 AM 72.0 °F - 69.1 °F 91% 29.90 in 10.0 mi ESE 4.6 mph - N/A   Overcast
7:53 AM 71.1 °F - 69.1 °F 93% 29.89 in 10.0 mi SE 3.5 mph - N/A   Overcast
8:53 AM 72.0 °F - 69.1 °F 91% 29.90 in 8.0 mi ESE 5.8 mph - N/A   Overcast
9:22 AM 72.0 °F - 70.0 °F 93% 29.93 in 8.0 mi SE 5.8 mph - N/A   Overcast
9:49 AM 71.6 °F - 69.8 °F 94% 29.93 in 2.0 mi ESE 5.8 mph - 0.00 in Rain Light Rain
9:53 AM 72.0 °F - 70.0 °F 93% 29.92 in 2.5 mi ESE 5.8 mph - 0.00 in Rain Light Rain
10:03 AM 72.0 °F - 70.0 °F 93% 29.93 in 7.0 mi ESE 6.9 mph - 0.00 in   Overcast
10:17 AM 72.0 °F - 70.0 °F 93% 29.93 in 10.0 mi ESE 3.5 mph - 0.00 in   Overcast
10:27 AM 73.0 °F - 70.0 °F 90% 29.93 in 7.0 mi SE 4.6 mph - 0.00 in Rain Light Rain
10:39 AM 73.0 °F - 70.0 °F 90% 29.92 in 2.5 mi East 4.6 mph - 0.00 in Rain Rain
10:48 AM 71.6 °F - 69.8 °F 94% 29.92 in 2.5 mi East 3.5 mph - 0.00 in Rain Light Rain
10:53 AM 73.0 °F - 70.0 °F 90% 29.91 in 8.0 mi East 3.5 mph - 0.00 in Rain Light Rain
11:00 AM 73.0 °F - 70.0 °F 90% 29.92 in 10.0 mi ESE 3.5 mph - 0.00 in Rain Light Rain
11:53 AM 73.9 °F - 71.1 °F 91% 29.91 in 10.0 mi SE 4.6 mph - 0.00 in   Overcast
12:24 PM 75.9 °F - 72.0 °F 87% 29.92 in 10.0 mi Calm Calm - N/A   Overcast
12:48 PM 77.0 °F - 71.6 °F 83% 29.91 in 10.0 mi Variable 3.5 mph - N/A   Mostly Cloudy
12:53 PM 77.0 °F - 72.0 °F 84% 29.90 in 10.0 mi NE 3.5 mph - N/A   Overcast
1:24 PM 75.9 °F - 71.1 °F 85% 29.92 in 10.0 mi East 6.9 mph - N/A   Overcast
1:53 PM 75.9 °F - 72.0 °F 87% 29.89 in 5.0 mi East 5.8 mph - N/A   Overcast
2:05 PM 77.0 °F - 72.0 °F 84% 29.91 in 7.0 mi ENE 4.6 mph - N/A   Overcast
2:42 PM 78.1 °F - 71.1 °F 79% 29.90 in 10.0 mi East 5.8 mph - N/A   Overcast
2:53 PM 79.0 °F - 72.0 °F 79% 29.88 in 10.0 mi Variable 4.6 mph - N/A   Overcast
3:31 PM 78.1 °F - 72.0 °F 81% 29.91 in 8.0 mi SSE 5.8 mph - 0.00 in Rain Light Rain
3:53 PM 77.0 °F - 73.0 °F 88% 29.89 in 7.0 mi Calm Calm - 0.00 in Rain Light Rain
4:53 PM 80.1 °F 83.6 °F 71.1 °F 74% 29.88 in 10.0 mi ESE 6.9 mph - 0.00 in   Overcast
5:53 PM 80.1 °F 83.8 °F 72.0 °F 76% 29.88 in 10.0 mi East 4.6 mph - N/A   Mostly Cloudy
6:53 PM 79.0 °F - 72.0 °F 79% 29.89 in 10.0 mi ESE 3.5 mph - N/A   Clear
7:25 PM 79.0 °F - 73.0 °F 82% 29.91 in 10.0 mi ESE 4.6 mph - N/A   Mostly Cloudy
7:53 PM 78.1 °F - 72.0 °F 81% 29.91 in 10.0 mi ESE 5.8 mph - N/A   Mostly Cloudy
8:18 PM 77.0 °F - 72.0 °F 84% 29.93 in 10.0 mi SE 4.6 mph - N/A   Mostly Cloudy
8:48 PM 75.2 °F - 71.6 °F 89% 29.92 in 10.0 mi Calm Calm - N/A   Mostly Cloudy
8:53 PM 75.9 °F - 73.0 °F 91% 29.91 in 10.0 mi Calm Calm - N/A   Mostly Cloudy
9:02 PM 75.9 °F - 72.0 °F 87% 29.92 in 10.0 mi Calm Calm - N/A   Mostly Cloudy
9:09 PM 75.9 °F - 72.0 °F 87% 29.92 in 10.0 mi Calm Calm - N/A   Scattered Clouds
9:48 PM 75.2 °F - 71.6 °F 89% 29.92 in 10.0 mi East 5.8 mph - N/A   Scattered Clouds
9:53 PM 75.0 °F - 72.0 °F 90% 29.91 in 10.0 mi ESE 3.5 mph - N/A   Mostly Cloudy
10:11 PM 75.0 °F - 72.0 °F 90% 29.93 in 10.0 mi ESE 6.9 mph - N/A   Overcast
10:44 PM 75.0 °F - 72.0 °F 90% 29.95 in 10.0 mi Calm Calm - N/A   Overcast
10:53 PM 75.0 °F - 72.0 °F 90% 29.94 in 10.0 mi Calm Calm - N/A   Overcast
11:00 PM 75.0 °F - 72.0 °F 90% 29.95 in 10.0 mi Calm Calm - N/A   Overcast
11:33 PM 73.9 °F - 72.0 °F 93% 29.94 in 10.0 mi SE 3.5 mph - N/A   Overcast
11:40 PM 73.9 °F - 72.0 °F 93% 29.94 in 10.0 mi ESE 5.8 mph - N/A   Overcast
11:53 PM 73.9 °F - 72.0 °F 93% 29.92 in 10.0 mi ESE 5.8 mph - N/A   Overcast